DLH119 EDDF-EBCI

Flight info

Callsign DLH119
Flight time 0h 54m
Altitude 22000
Route SOBRA2L/18 SOBRA DCT ROPUV DCT PESOV DCT LNO
Aircraft A20N/M-SDE2E3FGHIRWXY/LB1

Departure

Time 2026-05-06 17:11
Airport Frankfurt Main Airport (EDDF)

Arrival

Time 2026-05-06 18:06
Airport Brussels South Charleroi Airport (EBCI)
Time Latitude Longitude Altitude Speed Heading
2026-05-06 16:45 50.04735 8.56736 361 ft 0 kts 117°
2026-05-06 16:52 50.04736 8.56733 361 ft 0 kts 117°
2026-05-06 16:53 50.04741 8.56720 363 ft 2 kts 117°
2026-05-06 16:53 50.04749 8.56698 364 ft 2 kts 128°
2026-05-06 16:53 50.04759 8.56678 362 ft 2 kts 148°
2026-05-06 16:54 50.04774 8.56669 362 ft 2 kts 182°
2026-05-06 16:54 50.04777 8.56668 362 ft 0 kts 190°
2026-05-06 16:56 50.04725 8.56596 361 ft 18 kts 232°
2026-05-06 16:56 50.04691 8.56525 361 ft 0 kts 232°
2026-05-06 16:57 50.04689 8.56522 361 ft 3 kts 234°
2026-05-06 16:57 50.04680 8.56496 364 ft 1 kts 237°
2026-05-06 16:57 50.04637 8.56480 360 ft 16 kts 185°
2026-05-06 16:57 50.04543 8.56432 360 ft 12 kts 213°
2026-05-06 16:58 50.04505 8.56337 361 ft 9 kts 250°
2026-05-06 16:58 50.04487 8.56259 359 ft 9 kts 249°
2026-05-06 16:58 50.04461 8.56152 361 ft 13 kts 250°
2026-05-06 16:58 50.04410 8.56036 358 ft 13 kts 198°
2026-05-06 16:59 50.04338 8.56062 360 ft 9 kts 158°
2026-05-06 16:59 50.04332 8.56065 358 ft 0 kts 158°
2026-05-06 16:59 50.04310 8.56073 360 ft 13 kts 172°
2026-05-06 16:59 50.04258 8.56011 356 ft 7 kts 247°
2026-05-06 17:00 50.04238 8.55931 358 ft 14 kts 249°
2026-05-06 17:00 50.04191 8.55739 358 ft 20 kts 250°
2026-05-06 17:00 50.04145 8.55553 362 ft 17 kts 249°
2026-05-06 17:00 50.04106 8.55386 361 ft 15 kts 250°
2026-05-06 17:01 50.04073 8.55250 359 ft 11 kts 250°
2026-05-06 17:01 50.04048 8.55143 360 ft 10 kts 250°
2026-05-06 17:01 50.04028 8.55056 356 ft 7 kts 250°
2026-05-06 17:01 50.04011 8.54985 354 ft 10 kts 250°
2026-05-06 17:02 50.03979 8.54851 358 ft 14 kts 249°
2026-05-06 17:02 50.03944 8.54709 351 ft 14 kts 250°
2026-05-06 17:02 50.03915 8.54583 351 ft 10 kts 249°
2026-05-06 17:02 50.03898 8.54512 351 ft 4 kts 250°
2026-05-06 17:03 50.03892 8.54488 353 ft 1 kts 250°
2026-05-06 17:03 50.03891 8.54485 352 ft 1 kts 250°
2026-05-06 17:03 50.03863 8.54378 351 ft 15 kts 240°
2026-05-06 17:03 50.03811 8.54254 349 ft 12 kts 242°
2026-05-06 17:04 50.03782 8.54149 354 ft 10 kts 249°
2026-05-06 17:04 50.03756 8.54044 351 ft 11 kts 248°
2026-05-06 17:04 50.03727 8.53923 346 ft 13 kts 250°
2026-05-06 17:04 50.03696 8.53793 339 ft 13 kts 249°
2026-05-06 17:05 50.03660 8.53643 334 ft 17 kts 249°
2026-05-06 17:05 50.03619 8.53470 335 ft 18 kts 250°
2026-05-06 17:05 50.03572 8.53278 333 ft 20 kts 250°
2026-05-06 17:05 50.03524 8.53082 336 ft 15 kts 250°
2026-05-06 17:06 50.03497 8.52971 345 ft 3 kts 249°
2026-05-06 17:06 50.03496 8.52965 349 ft 0 kts 249°
2026-05-06 17:06 50.03490 8.52943 353 ft 7 kts 249°
2026-05-06 17:06 50.03474 8.52874 354 ft 5 kts 248°
2026-05-06 17:07 50.03466 8.52845 349 ft 3 kts 248°
2026-05-06 17:07 50.03451 8.52788 350 ft 7 kts 244°
2026-05-06 17:07 50.03435 8.52735 358 ft 0 kts 246°
2026-05-06 17:09 50.03426 8.52702 358 ft 14 kts 246°
2026-05-06 17:09 50.03345 8.52595 348 ft 17 kts 184°
2026-05-06 17:09 50.03337 8.52595 348 ft 0 kts 181°
2026-05-06 17:10 50.03334 8.52595 348 ft 2 kts 181°
2026-05-06 17:10 50.03244 8.52595 346 ft 38 kts 180°
2026-05-06 17:11 50.02699 8.52599 347 ft 112 kts 179°
2026-05-06 17:11 50.01742 8.52613 349 ft 164 kts 179°
2026-05-06 17:11 50.00537 8.52631 753 ft 179 kts 181°
2026-05-06 17:11 49.99256 8.52768 1393 ft 187 kts 174°
2026-05-06 17:12 49.98385 8.52967 1883 ft 187 kts 173°
2026-05-06 17:12 49.96532 8.53447 2054 ft 237 kts 173°
2026-05-06 17:12 49.95332 8.53695 1605 ft 287 kts 176°
2026-05-06 17:12 49.93169 8.53791 1714 ft 320 kts 182°
2026-05-06 17:13 49.91035 8.53709 2967 ft 283 kts 183°
2026-05-06 17:13 49.89203 8.53655 3475 ft 245 kts 182°
2026-05-06 17:13 49.87589 8.53528 3732 ft 230 kts 192°
2026-05-06 17:13 49.86018 8.52785 3996 ft 248 kts 203°
2026-05-06 17:14 49.84372 8.51783 4263 ft 258 kts 201°
2026-05-06 17:14 49.82687 8.50818 5082 ft 261 kts 200°
2026-05-06 17:14 49.80975 8.49859 6080 ft 262 kts 200°
2026-05-06 17:14 49.79243 8.48895 6984 ft 266 kts 200°
2026-05-06 17:15 49.77584 8.47622 7821 ft 269 kts 218°
2026-05-06 17:15 49.76382 8.45389 8718 ft 274 kts 243°
2026-05-06 17:15 49.75906 8.42526 9635 ft 280 kts 268°
2026-05-06 17:15 49.76207 8.39546 10413 ft 287 kts 282°
2026-05-06 17:16 49.76718 8.36420 10726 ft 310 kts 282°
2026-05-06 17:16 49.77262 8.33097 10951 ft 333 kts 282°
2026-05-06 17:16 49.77850 8.29503 11239 ft 351 kts 282°
2026-05-06 17:16 49.78455 8.25793 11872 ft 357 kts 282°
2026-05-06 17:17 49.79063 8.22040 12524 ft 362 kts 282°
2026-05-06 17:17 49.79674 8.18248 12761 ft 363 kts 282°
2026-05-06 17:17 49.80283 8.14453 12822 ft 363 kts 282°
2026-05-06 17:17 49.80886 8.10661 12818 ft 362 kts 282°
2026-05-06 17:18 49.81478 8.06917 12824 ft 362 kts 282°
2026-05-06 17:18 49.82074 8.03131 12819 ft 362 kts 282°
2026-05-06 17:18 49.82672 7.99337 12822 ft 362 kts 282°
2026-05-06 17:18 49.83273 7.95528 12820 ft 362 kts 282°
2026-05-06 17:19 49.83871 7.91727 12825 ft 362 kts 282°
2026-05-06 17:19 49.84460 7.87967 12811 ft 362 kts 282°
2026-05-06 17:19 49.85053 7.84162 12825 ft 362 kts 282°
2026-05-06 17:19 49.85653 7.80375 12831 ft 362 kts 283°
2026-05-06 17:20 49.86529 7.76698 12897 ft 367 kts 294°
2026-05-06 17:20 49.87801 7.73282 13640 ft 372 kts 300°
2026-05-06 17:20 49.89174 7.69855 14329 ft 375 kts 300°
2026-05-06 17:20 49.90546 7.66382 14967 ft 378 kts 299°
2026-05-06 17:21 49.91909 7.62906 15576 ft 382 kts 299°
2026-05-06 17:21 49.93297 7.59348 16173 ft 386 kts 299°
2026-05-06 17:21 49.94699 7.55748 16758 ft 390 kts 299°
2026-05-06 17:21 49.96118 7.52113 17331 ft 394 kts 300°
2026-05-06 17:22 49.97548 7.48464 17902 ft 397 kts 300°
2026-05-06 17:22 49.98980 7.44818 18413 ft 401 kts 300°
2026-05-06 17:22 50.00445 7.41084 18895 ft 405 kts 300°
2026-05-06 17:22 50.01892 7.37395 19876 ft 391 kts 300°
2026-05-06 17:23 50.03273 7.33868 20977 ft 371 kts 300°
2026-05-06 17:23 50.04586 7.30498 21460 ft 365 kts 300°
2026-05-06 17:23 50.05899 7.27123 21713 ft 363 kts 300°
2026-05-06 17:23 50.07212 7.23738 21823 ft 364 kts 300°
2026-05-06 17:24 50.08521 7.20361 21832 ft 363 kts 300°
2026-05-06 17:24 50.09813 7.17023 21839 ft 363 kts 300°
2026-05-06 17:24 50.11119 7.13646 21837 ft 363 kts 300°
2026-05-06 17:24 50.12426 7.10268 21839 ft 363 kts 300°
2026-05-06 17:25 50.13717 7.06923 21838 ft 363 kts 300°
2026-05-06 17:25 50.15017 7.03544 21839 ft 363 kts 300°
2026-05-06 17:25 50.16320 7.00150 21839 ft 363 kts 300°
2026-05-06 17:25 50.17603 6.96809 21837 ft 363 kts 300°
2026-05-06 17:26 50.18902 6.93423 21842 ft 363 kts 300°
2026-05-06 17:26 50.20199 6.90044 21842 ft 363 kts 300°
2026-05-06 17:26 50.21498 6.86662 21841 ft 363 kts 300°
2026-05-06 17:26 50.22767 6.83244 21840 ft 362 kts 297°
2026-05-06 17:27 50.23922 6.79783 21843 ft 362 kts 295°
2026-05-06 17:27 50.25024 6.76242 21843 ft 362 kts 294°
2026-05-06 17:27 50.26099 6.72680 21842 ft 362 kts 294°
2026-05-06 17:27 50.27168 6.69117 21844 ft 362 kts 294°
2026-05-06 17:28 50.28250 6.65545 21846 ft 362 kts 294°
2026-05-06 17:28 50.29322 6.62045 21843 ft 362 kts 294°
2026-05-06 17:28 50.30418 6.58506 21847 ft 361 kts 294°
2026-05-06 17:28 50.31522 6.54957 21847 ft 361 kts 295°
2026-05-06 17:29 50.32620 6.51425 21852 ft 361 kts 294°
2026-05-06 17:29 50.33718 6.47877 21852 ft 361 kts 294°
2026-05-06 17:29 50.34812 6.44330 21853 ft 361 kts 294°
2026-05-06 17:29 50.35906 6.40788 21856 ft 361 kts 294°
2026-05-06 17:30 50.37006 6.37228 21858 ft 361 kts 294°
2026-05-06 17:30 50.38091 6.33720 21860 ft 361 kts 295°
2026-05-06 17:30 50.39223 6.30198 21864 ft 362 kts 296°
2026-05-06 17:30 50.40387 6.26685 21863 ft 362 kts 296°
2026-05-06 17:31 50.41548 6.23219 21866 ft 362 kts 296°
2026-05-06 17:31 50.42723 6.19716 21870 ft 361 kts 296°
2026-05-06 17:31 50.43889 6.16214 21868 ft 361 kts 296°
2026-05-06 17:31 50.45058 6.12668 21875 ft 373 kts 296°
2026-05-06 17:32 50.46256 6.09002 21880 ft 391 kts 296°
2026-05-06 17:32 50.47525 6.05110 21877 ft 408 kts 296°
2026-05-06 17:32 50.48848 6.01049 21880 ft 424 kts 296°
2026-05-06 17:32 50.50215 5.96850 21884 ft 437 kts 296°
2026-05-06 17:33 50.51601 5.92592 21887 ft 448 kts 296°
2026-05-06 17:33 50.52968 5.88396 21888 ft 451 kts 296°
2026-05-06 17:33 50.54382 5.84046 21890 ft 452 kts 296°
2026-05-06 17:33 50.55816 5.79630 21890 ft 453 kts 296°
2026-05-06 17:34 50.57248 5.75209 21889 ft 453 kts 296°
2026-05-06 17:34 50.58793 5.70869 21893 ft 453 kts 302°
2026-05-06 17:34 50.60688 5.66901 21896 ft 454 kts 308°
2026-05-06 17:34 50.62670 5.63014 21894 ft 454 kts 308°
2026-05-06 17:35 50.64646 5.59136 21891 ft 454 kts 308°
2026-05-06 17:35 50.66600 5.55299 21890 ft 453 kts 308°
2026-05-06 17:35 50.68577 5.51410 21890 ft 453 kts 308°
2026-05-06 17:36 50.72516 5.43627 21890 ft 453 kts 308°
2026-05-06 17:36 50.74482 5.39734 21889 ft 453 kts 307°
2026-05-06 17:36 50.76423 5.35890 21893 ft 452 kts 307°
2026-05-06 17:36 50.78385 5.31997 21893 ft 452 kts 307°
2026-05-06 17:37 50.80343 5.28096 21902 ft 452 kts 307°
2026-05-06 17:37 50.82237 5.24130 21894 ft 451 kts 301°
2026-05-06 17:37 50.83556 5.19652 21892 ft 448 kts 285°
2026-05-06 17:37 50.84076 5.14883 21892 ft 445 kts 270°
2026-05-06 17:38 50.83772 5.10023 21887 ft 442 kts 256°
2026-05-06 17:38 50.82973 5.05299 21560 ft 442 kts 254°
2026-05-06 17:38 50.82172 5.00715 21285 ft 433 kts 253°
2026-05-06 17:38 50.81367 4.96140 21027 ft 430 kts 253°
2026-05-06 17:39 50.80566 4.91599 20780 ft 428 kts 253°
2026-05-06 17:39 50.79765 4.87074 20529 ft 426 kts 253°
2026-05-06 17:39 50.78965 4.82561 20240 ft 423 kts 253°
2026-05-06 17:39 50.78174 4.78099 19591 ft 419 kts 253°
2026-05-06 17:40 50.77402 4.73729 18940 ft 416 kts 253°
2026-05-06 17:40 50.76623 4.69341 18316 ft 412 kts 253°
2026-05-06 17:40 50.75846 4.64987 17663 ft 409 kts 255°
2026-05-06 17:40 50.75078 4.60694 17071 ft 403 kts 255°
2026-05-06 17:41 50.74268 4.56172 16485 ft 396 kts 255°
2026-05-06 17:41 50.73522 4.52006 15954 ft 391 kts 255°
2026-05-06 17:41 50.72784 4.47894 15423 ft 386 kts 255°
2026-05-06 17:42 50.72055 4.43840 14908 ft 382 kts 255°
2026-05-06 17:42 50.71068 4.40039 14387 ft 380 kts 240°
2026-05-06 17:42 50.69384 4.36830 13850 ft 380 kts 222°
2026-05-06 17:42 50.67143 4.34622 13217 ft 381 kts 203°
2026-05-06 17:43 50.64601 4.33631 12555 ft 382 kts 185°
2026-05-06 17:43 50.61957 4.33933 11907 ft 382 kts 166°
2026-05-06 17:43 50.59511 4.35347 11723 ft 368 kts 158°
2026-05-06 17:43 50.57176 4.36825 11585 ft 353 kts 158°
2026-05-06 17:44 50.54929 4.38224 11459 ft 340 kts 159°
2026-05-06 17:44 50.52788 4.39547 11332 ft 328 kts 159°
2026-05-06 17:44 50.50695 4.40839 11205 ft 317 kts 159°
2026-05-06 17:44 50.48691 4.42132 11071 ft 307 kts 153°
2026-05-06 17:45 50.46945 4.44046 10592 ft 309 kts 135°
2026-05-06 17:45 50.45705 4.46775 10307 ft 303 kts 114°
2026-05-06 17:45 50.45059 4.49864 10087 ft 295 kts 97°
2026-05-06 17:45 50.44843 4.53002 9781 ft 291 kts 94°
2026-05-06 17:46 50.44647 4.56114 9645 ft 281 kts 94°
2026-05-06 17:46 50.44456 4.59083 9502 ft 263 kts 94°
2026-05-06 17:46 50.44277 4.61848 9256 ft 251 kts 94°
2026-05-06 17:46 50.44098 4.64614 8738 ft 257 kts 94°
2026-05-06 17:47 50.43969 4.67436 8281 ft 261 kts 87°
2026-05-06 17:47 50.44202 4.70204 7949 ft 258 kts 73°
2026-05-06 17:47 50.44823 4.72829 7627 ft 255 kts 63°
2026-05-06 17:47 50.45564 4.75358 7297 ft 255 kts 64°
2026-05-06 17:48 50.46459 4.77733 6980 ft 251 kts 44°
2026-05-06 17:48 50.47901 4.79176 6666 ft 245 kts 15°
2026-05-06 17:48 50.49556 4.79355 6347 ft 242 kts 347°
2026-05-06 17:48 50.51144 4.78409 5997 ft 241 kts 335°
2026-05-06 17:49 50.52649 4.77322 5670 ft 240 kts 334°
2026-05-06 17:49 50.53909 4.75671 5371 ft 238 kts 301°
2026-05-06 17:49 50.54243 4.73146 5064 ft 241 kts 264°
2026-05-06 17:49 50.53769 4.70609 4795 ft 240 kts 248°
2026-05-06 17:50 50.53044 4.68261 4390 ft 243 kts 244°
2026-05-06 17:50 50.52243 4.65907 3840 ft 244 kts 243°
2026-05-06 17:50 50.51461 4.63612 3642 ft 230 kts 242°
2026-05-06 17:50 50.50703 4.61465 3326 ft 223 kts 245°
2026-05-06 17:51 50.50024 4.59247 2749 ft 228 kts 247°
2026-05-06 17:51 50.49361 4.56958 2145 ft 233 kts 247°
2026-05-06 17:51 50.48695 4.54657 1760 ft 226 kts 247°
2026-05-06 17:51 50.48069 4.52486 1411 ft 210 kts 247°
2026-05-06 17:52 50.47484 4.50465 1112 ft 198 kts 247°
2026-05-06 17:52 50.46935 4.48548 992 ft 180 kts 248°
2026-05-06 17:52 50.46394 4.46552 1335 ft 218 kts 248°
2026-05-06 17:52 50.45754 4.44289 1682 ft 232 kts 247°
2026-05-06 17:53 50.45093 4.42055 1892 ft 221 kts 246°
2026-05-06 17:53 50.44449 4.39901 2016 ft 214 kts 247°
2026-05-06 17:53 50.43643 4.37989 2144 ft 212 kts 224°
2026-05-06 17:53 50.42289 4.36875 2636 ft 228 kts 192°
2026-05-06 17:54 50.40715 4.36969 2952 ft 232 kts 159°
2026-05-06 17:54 50.39430 4.38411 3004 ft 227 kts 124°
2026-05-06 17:54 50.38843 4.40652 3010 ft 221 kts 93°
2026-05-06 17:54 50.39053 4.42983 3000 ft 216 kts 63°
2026-05-06 17:55 50.39870 4.44897 3013 ft 214 kts 50°
2026-05-06 17:55 50.40778 4.46755 3006 ft 214 kts 50°
2026-05-06 17:55 50.41685 4.48620 3005 ft 214 kts 50°
2026-05-06 17:55 50.42588 4.50481 3008 ft 214 kts 50°
2026-05-06 17:56 50.43493 4.52346 3009 ft 214 kts 51°
2026-05-06 17:56 50.44394 4.54210 3006 ft 214 kts 51°
2026-05-06 17:56 50.45285 4.56055 3010 ft 214 kts 51°
2026-05-06 17:56 50.46189 4.57924 3011 ft 214 kts 51°
2026-05-06 17:57 50.47082 4.59772 3008 ft 214 kts 51°
2026-05-06 17:57 50.47990 4.61652 3028 ft 208 kts 51°
2026-05-06 17:57 50.48831 4.63400 3031 ft 198 kts 51°
2026-05-06 17:57 50.49651 4.65106 3053 ft 194 kts 51°
2026-05-06 17:58 50.50449 4.66763 3039 ft 185 kts 51°
2026-05-06 17:58 50.51219 4.68365 3028 ft 183 kts 51°
2026-05-06 17:58 50.51981 4.69951 3027 ft 181 kts 51°
2026-05-06 17:58 50.52733 4.71518 3027 ft 181 kts 51°
2026-05-06 17:59 50.53493 4.73107 3027 ft 181 kts 51°
2026-05-06 17:59 50.54255 4.74695 3023 ft 182 kts 51°
2026-05-06 17:59 50.55018 4.76278 3022 ft 181 kts 49°
2026-05-06 17:59 50.55997 4.77473 3019 ft 178 kts 19°
2026-05-06 18:00 50.57190 4.77641 3034 ft 177 kts 348°
2026-05-06 18:00 50.58257 4.76734 3022 ft 176 kts 316°
2026-05-06 18:00 50.58827 4.75027 3026 ft 180 kts 283°
2026-05-06 18:00 50.58693 4.73089 3022 ft 186 kts 249°
2026-05-06 18:01 50.57801 4.71626 3027 ft 190 kts 212°
2026-05-06 18:01 50.56696 4.70470 3026 ft 190 kts 217°
2026-05-06 18:01 50.55619 4.69256 3028 ft 190 kts 217°
2026-05-06 18:01 50.54555 4.68054 3024 ft 190 kts 217°
2026-05-06 18:02 50.53478 4.66840 3026 ft 190 kts 217°
2026-05-06 18:02 50.52415 4.65607 3031 ft 189 kts 222°
2026-05-06 18:02 50.51603 4.64108 2969 ft 178 kts 239°
2026-05-06 18:02 50.51011 4.62469 2788 ft 167 kts 245°
2026-05-06 18:03 50.50508 4.60853 2580 ft 162 kts 247°
2026-05-06 18:03 50.50034 4.59257 2378 ft 160 kts 247°
2026-05-06 18:03 50.49576 4.57685 2159 ft 159 kts 248°
2026-05-06 18:03 50.49121 4.56117 1942 ft 156 kts 248°
2026-05-06 18:04 50.48677 4.54582 1742 ft 153 kts 248°
2026-05-06 18:04 50.48238 4.53066 1515 ft 152 kts 247°
2026-05-06 18:04 50.47810 4.51583 1296 ft 149 kts 248°
2026-05-06 18:04 50.47400 4.50121 1080 ft 142 kts 248°
2026-05-06 18:05 50.46991 4.48731 887 ft 137 kts 247°
2026-05-06 18:05 50.46589 4.47363 661 ft 137 kts 247°
2026-05-06 18:05 50.46209 4.46045 596 ft 125 kts 249°
2026-05-06 18:05 50.45910 4.44999 601 ft 73 kts 245°
2026-05-06 18:06 50.45820 4.44695 619 ft 0 kts 245°
2026-05-06 18:06 50.45819 4.44695 619 ft 0 kts 245°
2026-05-06 18:06 50.45792 4.44600 608 ft 25 kts 245°
2026-05-06 18:06 50.45712 4.44345 621 ft 27 kts 245°
2026-05-06 18:07 50.45639 4.44086 616 ft 18 kts 248°
2026-05-06 18:07 50.45666 4.43989 618 ft 16 kts 347°
2026-05-06 18:07 50.45748 4.44104 618 ft 0 kts 52°
2026-05-06 18:08 50.45755 4.44119 614 ft 10 kts 52°
2026-05-06 18:09 50.45820 4.44248 615 ft 18 kts 51°
2026-05-06 18:09 50.45917 4.44444 619 ft 25 kts 59°
2026-05-06 18:09 50.45998 4.44700 603 ft 27 kts 65°
2026-05-06 18:09 50.46081 4.44983 600 ft 29 kts 66°
2026-05-06 18:10 50.46167 4.45284 596 ft 31 kts 65°
2026-05-06 18:10 50.46257 4.45595 593 ft 32 kts 65°
2026-05-06 18:10 50.46352 4.45925 589 ft 34 kts 66°
2026-05-06 18:10 50.46452 4.46263 585 ft 34 kts 65°
2026-05-06 18:11 50.46549 4.46604 581 ft 34 kts 65°
2026-05-06 18:11 50.46645 4.46796 578 ft 17 kts
2026-05-06 18:11 50.46721 4.46841 578 ft 10 kts 43°
2026-05-06 18:11 50.46756 4.46918 578 ft 8 kts 65°
2026-05-06 18:12 50.46775 4.46982 581 ft 3 kts 64°
2026-05-06 18:12 50.46782 4.47007 582 ft 2 kts 64°
2026-05-06 18:12 50.46800 4.47064 584 ft 8 kts 60°
2026-05-06 18:12 50.46836 4.47056 578 ft 5 kts 338°
2026-05-06 18:13 50.46852 4.47046 580 ft 0 kts 338°